This demonstration page uses our WeatherBlox Daily Observations layout. Learn more.

Left ArrowRight Arrow

40.92945, -100.16068

Hourly Observations for February 10, 2020

Temp ( °F °C ) Dew Point ( °F °C ) Humidity (%) Winds ( mph kmh ) Pressure ( in mb ) Visibility ( mi km ) Precip ( " mm )
12:15 am 00:15 Clear 21 -6 19 -7.5 89 89 SSW 6 9 30.29 1026 10 16 N/A
12:35 am 00:35 Partly Cloudy 22 -5.8 19 -7.5 88 88 S 6 9 30.29 1026 10 16 N/A
12:55 am 00:55 Mostly Cloudy 21 -6.1 18 -7.7 89 89 SSW 6 9 30.29 1026 10 16 N/A
1:15 am 01:15 Partly Cloudy 22 -5.5 19 -7.5 86 86 N N/A 30.27 1025 10 16 N/A
1:35 am 01:35 Clear 23 -5.2 19 -7.3 85 85 N N/A 30.27 1025 10 16 N/A
1:55 am 01:55 Clear 23 -5.2 19 -7.5 84 84 S 6 9 30.26 1025 10 16 N/A
2:15 am 02:15 Clear 24 -4.6 19 -7 84 84 S 7 11 30.25 1025 10 16 N/A
2:35 am 02:35 Clear 22 -5.4 19 -7.5 85 85 SSE 3 6 30.26 1025 10 16 N/A
2:55 am 02:55 Clear 22 -5.5 19 -7.5 86 86 N N/A 30.25 1024 10 16 N/A
3:15 am 03:15 Clear 23 -5.2 19 -7.5 84 84 N N/A 30.25 1024 10 16 N/A
3:35 am 03:35 Clear 24 -4.3 19 -7 82 82 SSW 7 11 30.24 1024 10 16 N/A
3:55 am 03:55 Clear 24 -4.2 20 -6.9 82 82 SSW 8 13 30.23 1024 10 16 N/A
4:15 am 04:15 Clear 24 -4.4 19 -7 82 82 SSW 9 15 30.22 1023 10 16 N/A
4:35 am 04:35 Clear 23 -5.2 18 -7.6 83 83 S 5 7 30.23 1024 10 16 N/A
4:55 am 04:55 Clear 22 -5.8 18 -8 85 85 N N/A 30.23 1024 10 16 N/A
5:15 am 05:15 Clear 22 -5.4 18 -7.7 84 84 SW 6 9 30.22 1023 10 16 N/A
5:35 am 05:35 Clear 23 -5 19 -7.5 83 83 SW 8 13 30.21 1023 10 16 N/A
5:55 am 05:55 Clear 23 -5.1 18 -7.6 83 83 N N/A 30.21 1023 10 16 N/A
6:15 am 06:15 Clear 22 -5.7 18 -8 84 84 SW 6 9 30.22 1023 10 16 N/A
6:35 am 06:35 Clear 21 -6 18 -8 86 86 SW 7 11 30.22 1023 10 16 N/A
6:55 am 06:55 Clear 22 -5.5 18 -7.8 84 84 WSW 5 7 30.22 1023 10 16 N/A
7:15 am 07:15 Clear 24 -4.7 18 -7.9 79 79 WSW 5 7 30.21 1023 10 16 N/A
7:35 am 07:35 Clear 22 -5.5 17 -8.1 82 82 SW 6 9 30.22 1023 10 16 N/A
7:55 am 07:55 Sunny 22 -5.3 18 -8 82 82 W 6 9 30.22 1023 10 16 N/A
8:15 am 08:15 Sunny 24 -4.5 19 -7.5 80 80 W 8 13 30.22 1023 10 16 N/A
8:35 am 08:35 Sunny 25 -4.1 19 -7.1 80 80 W 6 9 30.23 1024 10 16 N/A
8:55 am 08:55 Sunny 26 -3.2 20 -6.7 77 77 W 7 11 30.23 1024 10 16 N/A
9:15 am 09:15 Sunny 27 -2.9 20 -6.6 76 76 WSW 8 13 30.23 1024 10 16 N/A
9:35 am 09:35 Sunny 28 -2.2 21 -6.1 75 75 W 9 15 30.22 1023 10 16 N/A
9:55 am 09:55 Sunny 29 -1.4 22 -5.5 74 74 WNW 7 11 30.21 1023 10 16 N/A
10:15 am 10:15 Sunny 31 -0.5 22 -5.5 69 69 WNW 14 22 30.21 1023 10 16 N/A
10:35 am 10:35 Sunny 32 undefined 22 -5.3 68 68 NW 14 22 30.21 1023 10 16 N/A
10:55 am 10:55 Sunny 33 0.3 23 -5 68 68 NW 12 19 30.21 1023 10 16 N/A
11:15 am 11:15 Sunny 34 1 24 -4.7 66 66 NW 8 13 30.22 1023 10 16 N/A
11:35 am 11:35 Sunny 36 2.1 24 -4.2 63 63 NNW 8 13 30.21 1023 10 16 N/A
11:55 am 11:55 Sunny 37 2.8 23 -4.8 58 58 NW 7 11 30.19 1022 10 16 N/A
12:15 pm 12:15 Sunny 39 3.7 22 -5.6 51 51 N 9 15 30.17 1022 10 16 N/A
12:35 pm 12:35 Sunny 40 4.5 22 -5.4 49 49 NNE 9 15 30.16 1021 10 16 N/A
12:55 pm 12:55 Sunny 40 4.3 22 -5.7 49 49 NNW 12 19 30.16 1021 10 16 N/A
1:15 pm 13:15 Sunny 40 4.7 22 -5.3 49 49 NNW 10 17 30.15 1021 10 16 N/A
1:35 pm 13:35 Sunny 41 4.9 22 -5.5 47 47 NNW 9 15 30.14 1021 10 16 N/A
1:55 pm 13:55 Sunny 42 5.6 21 -6.3 42 42 N 10 17 30.12 1020 10 16 N/A
2:15 pm 14:15 Sunny 43 5.9 20 -6.5 41 41 N 9 15 30.12 1020 10 16 N/A
2:35 pm 14:35 Sunny 43 6.1 21 -5.9 42 42 N 12 19 30.11 1020 10 16 N/A
2:55 pm 14:55 Sunny 43 6.3 23 -5.1 44 44 NNE 13 20 30.10 1019 10 16 N/A
3:15 pm 15:15 Partly Cloudy 44 6.5 22 -5.3 43 43 NNW 12 19 30.09 1019 10 16 N/A
3:35 pm 15:35 Sunny 43 6 23 -5.1 45 45 N 12 19 30.10 1019 10 16 N/A
3:55 pm 15:55 Partly Cloudy 43 6.3 22 -5.4 43 43 N 13 20 30.11 1019 10 16 N/A
4:15 pm 16:15 Partly Cloudy 43 5.9 22 -5.5 44 44 N 13 20 30.12 1020 10 16 N/A
4:35 pm 16:35 Mostly Cloudy 43 5.9 23 -5 46 46 NNE 15 24 30.13 1020 10 16 N/A
4:55 pm 16:55 Mostly Cloudy 41 4.8 22 -5.4 48 48 NNE 13 20 30.15 1021 10 16 N/A
5:15 pm 17:15 Sunny 40 4.5 23 -5 50 50 NNE 12 19 30.15 1021 10 16 N/A
5:35 pm 17:35 Sunny 39 3.7 22 -5.6 51 51 NNE 9 15 30.16 1021 10 16 N/A
5:55 pm 17:55 Sunny 36 2.4 22 -5.5 56 56 NNE 8 13 30.18 1022 10 16 N/A
6:15 pm 18:15 Clear 35 1.4 22 -5.8 59 59 NNE 5 7 30.20 1023 10 16 N/A
6:35 pm 18:35 Clear 34 1.2 21 -6.1 59 59 NE 6 9 30.23 1024 10 16 N/A
6:55 pm 18:55 Clear 32 undefined 22 -5.6 66 66 E 5 7 30.25 1024 10 16 N/A
7:15 pm 19:15 Mostly Cloudy 33 0.3 21 -6 63 63 E 3 6 30.25 1025 10 16 N/A
7:35 pm 19:35 Cloudy 33 0.8 22 -5.5 63 63 ESE 3 6 30.26 1025 10 16 N/A
7:55 pm 19:55 Cloudy 32 0.1 23 -4.8 70 70 N N/A 30.28 1025 10 16 N/A
8:15 pm 20:15 Cloudy 31 -0.6 25 -3.9 79 79 W 3 6 30.29 1026 10 16 N/A
8:35 pm 20:35 Cloudy 31 -0.5 24 -4.5 75 75 N 3 6 30.30 1026 10 16 N/A
8:55 pm 20:55 Cloudy 31 -0.6 24 -4.4 76 76 NNW 5 7 30.31 1027 10 16 N/A
9:15 pm 21:15 Cloudy 31 -0.4 24 -4.2 76 76 N 6 9 30.32 1027 10 16 N/A
9:35 pm 21:35 Mostly Cloudy 32 undefined 24 -4.6 71 71 N 12 19 30.34 1027 10 16 N/A
9:55 pm 21:55 Cloudy 33 0.4 23 -4.8 68 68 N 14 22 30.34 1028 10 16 N/A
10:15 pm 22:15 Cloudy 32 0.1 23 -5 69 69 N 12 19 30.36 1028 10 16 N/A
10:35 pm 22:35 Cloudy 32 undefined 22 -5.3 68 68 N 10 17 30.37 1028 10 16 N/A
10:55 pm 22:55 Cloudy 31 -0.3 22 -5.6 68 68 N 9 15 30.37 1028 10 16 N/A
11:15 pm 23:15 Cloudy 31 -0.5 22 -5.8 68 68 N 7 11 30.38 1029 10 16 N/A
11:35 pm 23:35 Cloudy 31 -0.5 22 -5.7 68 68 NNW 3 6 30.39 1029 10 16 N/A
11:55 pm 23:55 Cloudy 31 -0.7 21 -6 68 68 NNW 5 7 30.39 1029 10 16 N/A

Powered by AerisWeather